Location: Hermaringen
(48.5952°N, 10.2585°E)
Time: 04:02:01
(UTC+00:00)

Altair - Pass Details

Date: 20 February 2026
Orbit: 1502 x 1682 km, 47.2° (Epoch: 7 March)

Event Time Altitude Azimuth Distance (km) Brightness Sun altitude
Rises 02:08:27 0° 203° (SSW) 4,622 - -40.4°
Reaches altitude 10° 02:11:54 10° 193° (SSW) 3,644 - -39.9°
Exits shadow 02:19:00 30° 142° (SE) 2,431 8.5 -38.9°
Maximum altitude 02:19:30 31° 136° (SE) 2,427 8.5 -38.9°
Drops below altitude 10° 02:27:12 10° 80° (E) 3,712 10.2 -37.8°
Sets 02:30:44 0° 70° (ENE) 4,721 11.0 -37.3°
